TimeCDT,TemperatureF,Dew PointF,Humidity,Sea Level PressureIn,VisibilityMPH,Wind Direction,Wind SpeedMPH,Gust SpeedMPH,PrecipitationIn,Events,Conditions,WindDirDegrees,DateUTC
12:56 AM,9.0,-4.0,56,30.14,10.0,West,12.7,-,N/A,,Clear,280,2013-03-20 05:56:00
1:56 AM,8.1,-5.1,55,30.15,10.0,WNW,11.5,-,N/A,,Clear,290,2013-03-20 06:56:00
2:56 AM,6.1,-6.0,58,30.14,10.0,WNW,9.2,-,N/A,,Clear,290,2013-03-20 07:56:00
3:56 AM,6.1,-7.1,55,30.14,10.0,West,13.8,-,N/A,,Clear,280,2013-03-20 08:56:00
4:56 AM,3.9,-7.1,60,30.14,10.0,West,12.7,-,N/A,,Clear,280,2013-03-20 09:56:00
5:56 AM,3.0,-7.1,63,30.15,10.0,West,8.1,-,N/A,,Clear,270,2013-03-20 10:56:00
6:56 AM,1.9,-7.1,66,30.16,10.0,West,9.2,-,N/A,,Clear,280,2013-03-20 11:56:00
7:56 AM,3.0,-7.1,63,30.16,10.0,West,13.8,-,N/A,,Clear,280,2013-03-20 12:56:00
8:56 AM,6.1,-5.1,60,30.16,3.0,WNW,15.0,24.2,N/A,,Haze,290,2013-03-20 13:56:00
9:13 AM,6.8,-5.8,56,30.10,3.0,WNW,17.3,21.9,N/A,,Haze,290,2013-03-20 14:13:00
9:56 AM,7.0,-4.0,61,30.15,10.0,WNW,12.7,20.7,N/A,,Clear,290,2013-03-20 14:56:00
10:56 AM,10.0,-2.9,56,30.15,10.0,WNW,15.0,20.7,N/A,,Clear,290,2013-03-20 15:56:00
11:56 AM,12.0,-0.9,56,30.14,10.0,West,12.7,-,0.00,,Clear,270,2013-03-20 16:56:00
12:56 PM,14.0,-0.9,52,30.13,10.0,West,13.8,-,N/A,,Clear,270,2013-03-20 17:56:00
1:56 PM,17.1,1.0,50,30.12,10.0,WNW,15.0,20.7,N/A,,Scattered Clouds,290,2013-03-20 18:56:00
2:56 PM,18.0,1.0,48,30.11,10.0,NW,15.0,20.7,0.00,,Overcast,310,2013-03-20 19:56:00
3:56 PM,17.1,1.0,50,30.11,10.0,WNW,10.4,-,N/A,,Mostly Cloudy,290,2013-03-20 20:56:00
4:56 PM,18.0,1.0,48,30.12,10.0,WNW,9.2,-,N/A,,Overcast,290,2013-03-20 21:56:00
5:56 PM,18.0,1.0,48,30.12,10.0,NW,9.2,-,N/A,,Overcast,320,2013-03-20 22:56:00
6:56 PM,17.1,1.0,50,30.13,10.0,NW,5.8,-,N/A,,Partly Cloudy,320,2013-03-20 23:56:00
7:56 PM,14.0,1.0,56,30.12,10.0,Calm,Calm,-,N/A,,Clear,0,2013-03-21 00:56:00
8:56 PM,12.9,1.0,59,30.12,10.0,WNW,3.5,-,N/A,,Clear,300,2013-03-21 01:56:00
9:56 PM,9.0,-0.0,67,30.13,10.0,NW,3.5,-,N/A,,Clear,320,2013-03-21 02:56:00
10:56 PM,5.0,-0.9,76,30.14,10.0,NW,3.5,-,N/A,,Clear,320,2013-03-21 03:56:00
11:56 PM,3.9,-2.9,73,30.15,10.0,Calm,Calm,-,N/A,,Clear,0,2013-03-21 04:56:00